{"data":{"norad_id":67798,"epoch":"2026-05-25T01:36:15.043392Z","epoch_age_seconds":63068,"freshness":"FRESH","line1":"1 67798U 26032B   26145.06684078  .00012894  00000+0  40100-3 0  9998","line2":"2 67798  97.2851 333.1286 0001377 107.0203 253.1191 15.33447175 16669","mean_motion":15.33447175,"eccentricity":0.0001377,"inclination_deg":97.2851,"raan_deg":333.1286,"arg_perigee_deg":107.0203,"mean_anomaly_deg":253.1191,"bstar":0.000401,"rev_number":1666,"period_min":93.906071462814,"perigee_km":464.59432934709,"apogee_km":466.47907708496,"semimajor_km":6843.673703216,"source":"CELESTRAK","updated_at":"2026-05-25T13:38:21.691949Z"}}